Year,Month,Day,Hour,Minute,Value (Times are PST for temperature in C)
2009,06,05,00,00,19.30
2009,06,05,00,01,19.30
2009,06,05,00,02,19.30
2009,06,05,00,03,19.20
2009,06,05,00,04,19.00
2009,06,05,00,05,18.80
2009,06,05,00,06,18.60
2009,06,05,00,07,18.40
2009,06,05,00,08,18.30
2009,06,05,00,09,18.20
2009,06,05,00,10,18.10
2009,06,05,00,11,18.00
2009,06,05,00,12,17.90
2009,06,05,00,13,17.90
2009,06,05,00,14,17.80
2009,06,05,00,15,17.80
2009,06,05,00,16,17.80
2009,06,05,00,17,17.80
2009,06,05,00,18,17.80
2009,06,05,00,19,17.90
2009,06,05,00,20,17.90
2009,06,05,00,21,17.90
2009,06,05,00,22,18.00
2009,06,05,00,23,18.00
2009,06,05,00,24,18.10
2009,06,05,00,25,18.10
2009,06,05,00,26,18.20
2009,06,05,00,27,18.30
2009,06,05,00,28,18.40
2009,06,05,00,29,18.50
2009,06,05,00,30,18.60
2009,06,05,00,31,18.70
2009,06,05,00,32,18.80
2009,06,05,00,33,18.80
2009,06,05,00,34,18.80
2009,06,05,00,35,18.80
2009,06,05,00,36,18.80
2009,06,05,00,37,18.80
2009,06,05,00,38,18.80
2009,06,05,00,39,18.80
2009,06,05,00,40,18.80
2009,06,05,00,41,18.80
2009,06,05,00,42,18.80
2009,06,05,00,43,18.90
2009,06,05,00,44,18.90
2009,06,05,00,45,18.90
2009,06,05,00,46,18.90
2009,06,05,00,47,18.90
2009,06,05,00,48,18.90
2009,06,05,00,49,18.90
2009,06,05,00,50,18.90
2009,06,05,00,51,18.80
2009,06,05,00,52,18.80
2009,06,05,00,53,18.80
2009,06,05,00,54,18.80
2009,06,05,00,55,18.80
2009,06,05,00,56,18.80
2009,06,05,00,57,18.80
2009,06,05,00,58,18.90
2009,06,05,00,59,19.00
2009,06,05,01,00,19.00
2009,06,05,01,01,19.10
2009,06,05,01,02,19.10
2009,06,05,01,03,19.20
2009,06,05,01,04,19.20
2009,06,05,01,05,19.20
2009,06,05,01,06,19.20
2009,06,05,01,07,19.20
2009,06,05,01,08,19.20
2009,06,05,01,09,19.20
2009,06,05,01,10,19.20
2009,06,05,01,11,19.20
2009,06,05,01,12,19.30
2009,06,05,01,13,19.30
2009,06,05,01,14,19.40
2009,06,05,01,15,19.40
2009,06,05,01,16,19.40
2009,06,05,01,17,19.40
2009,06,05,01,18,19.40
2009,06,05,01,19,19.50
2009,06,05,01,20,19.50
2009,06,05,01,21,19.50
2009,06,05,01,22,19.40
2009,06,05,01,23,19.50
2009,06,05,01,24,19.50
2009,06,05,01,25,19.50
2009,06,05,01,26,19.60
2009,06,05,01,27,19.60
2009,06,05,01,28,19.70
2009,06,05,01,29,19.70
2009,06,05,01,30,19.70
2009,06,05,01,31,19.80
2009,06,05,01,32,19.90
2009,06,05,01,33,19.90
2009,06,05,01,34,20.00
2009,06,05,01,35,20.10
2009,06,05,01,36,20.20
2009,06,05,01,37,20.30
2009,06,05,01,38,20.30
2009,06,05,01,39,20.40
2009,06,05,01,40,20.50
2009,06,05,01,41,20.60
2009,06,05,01,42,20.70
2009,06,05,01,43,20.70
2009,06,05,01,44,20.80
2009,06,05,01,45,20.90
2009,06,05,01,46,20.90
2009,06,05,01,47,21.00
2009,06,05,01,48,21.00
2009,06,05,01,49,21.10
2009,06,05,01,50,21.10
2009,06,05,01,51,21.20
2009,06,05,01,52,21.20
2009,06,05,01,53,21.20
2009,06,05,01,54,21.20
2009,06,05,01,55,21.20
2009,06,05,01,56,21.20
2009,06,05,01,57,21.20
2009,06,05,01,58,21.20
2009,06,05,01,59,21.20
2009,06,05,02,00,21.30
2009,06,05,02,01,21.30
2009,06,05,02,02,21.30
2009,06,05,02,03,21.30
2009,06,05,02,04,21.30
2009,06,05,02,05,21.30
2009,06,05,02,06,21.30
2009,06,05,02,07,21.30
2009,06,05,02,08,21.20
2009,06,05,02,09,21.20
2009,06,05,02,10,21.20
2009,06,05,02,11,21.20
2009,06,05,02,12,21.20
2009,06,05,02,13,21.20
2009,06,05,02,14,21.30
2009,06,05,02,15,21.40
2009,06,05,02,16,21.50
2009,06,05,02,17,21.60
2009,06,05,02,18,21.70
2009,06,05,02,19,21.80
2009,06,05,02,20,21.80
2009,06,05,02,21,21.80
2009,06,05,02,22,21.80
2009,06,05,02,23,21.80
2009,06,05,02,24,21.90
2009,06,05,02,25,21.90
2009,06,05,02,26,21.90
2009,06,05,02,27,21.90
2009,06,05,02,28,21.90
2009,06,05,02,29,21.90
2009,06,05,02,30,21.90
2009,06,05,02,31,21.80
2009,06,05,02,32,21.80
2009,06,05,02,33,21.80
2009,06,05,02,34,21.70
2009,06,05,02,35,21.70
2009,06,05,02,36,21.60
2009,06,05,02,37,21.60
2009,06,05,02,38,21.40
2009,06,05,02,39,21.00
2009,06,05,02,40,20.50
2009,06,05,02,41,20.10
2009,06,05,02,42,19.90
2009,06,05,02,43,19.70
2009,06,05,02,44,19.60
2009,06,05,02,45,19.40
2009,06,05,02,46,19.30
2009,06,05,02,47,19.30
2009,06,05,02,48,19.20
2009,06,05,02,49,19.10
2009,06,05,02,50,19.10
2009,06,05,02,51,19.00
2009,06,05,02,52,18.90
2009,06,05,02,53,18.80
2009,06,05,02,54,18.70
2009,06,05,02,55,18.60
2009,06,05,02,56,18.50
2009,06,05,02,57,18.40
2009,06,05,02,58,18.30
2009,06,05,02,59,18.30
2009,06,05,03,00,18.20
2009,06,05,03,01,18.10
2009,06,05,03,02,18.00
2009,06,05,03,03,17.90
2009,06,05,03,04,17.80
2009,06,05,03,05,17.70
2009,06,05,03,06,17.50
2009,06,05,03,07,17.30
2009,06,05,03,08,17.20
2009,06,05,03,09,17.10
2009,06,05,03,10,16.90
2009,06,05,03,11,16.80
2009,06,05,03,12,16.60
2009,06,05,03,13,16.40
2009,06,05,03,14,16.30
2009,06,05,03,15,16.10
2009,06,05,03,16,15.90
2009,06,05,03,17,15.70
2009,06,05,03,18,15.60
2009,06,05,03,19,15.50
2009,06,05,03,20,15.40
2009,06,05,03,21,15.40
2009,06,05,03,22,15.30
2009,06,05,03,23,15.30
2009,06,05,03,24,15.30
2009,06,05,03,25,15.30
2009,06,05,03,26,15.30
2009,06,05,03,27,15.40
2009,06,05,03,28,15.50
2009,06,05,03,29,15.50
2009,06,05,03,30,15.60
2009,06,05,03,31,15.70
2009,06,05,03,32,15.70
2009,06,05,03,33,15.80
2009,06,05,03,34,15.90
2009,06,05,03,35,16.00
2009,06,05,03,36,16.10
2009,06,05,03,37,16.10
2009,06,05,03,38,16.00
2009,06,05,03,39,15.90
2009,06,05,03,40,15.60
2009,06,05,03,41,15.10
2009,06,05,03,42,14.80
2009,06,05,03,43,14.40
2009,06,05,03,44,14.20
2009,06,05,03,45,14.00
2009,06,05,03,46,14.00
2009,06,05,03,47,13.90
2009,06,05,03,48,13.90
2009,06,05,03,49,13.90
2009,06,05,03,50,13.80
2009,06,05,03,51,13.80
2009,06,05,03,52,13.80
2009,06,05,03,53,13.80
2009,06,05,03,54,13.80
2009,06,05,03,55,13.70
2009,06,05,03,56,13.70
2009,06,05,03,57,13.60
2009,06,05,03,58,13.60
2009,06,05,03,59,13.40
2009,06,05,04,00,13.40
2009,06,05,04,01,13.30
2009,06,05,04,02,13.30
2009,06,05,04,03,13.30
2009,06,05,04,04,13.30
2009,06,05,04,05,13.30
2009,06,05,04,06,13.30
2009,06,05,04,07,13.30
2009,06,05,04,08,13.30
2009,06,05,04,09,13.30
2009,06,05,04,10,13.30
2009,06,05,04,11,13.30
2009,06,05,04,12,13.30
2009,06,05,04,13,13.20
2009,06,05,04,14,13.20
2009,06,05,04,15,13.10
2009,06,05,04,16,13.10
2009,06,05,04,17,13.10
2009,06,05,04,18,13.00
2009,06,05,04,19,12.90
2009,06,05,04,20,12.90
2009,06,05,04,21,12.80
2009,06,05,04,22,12.80
2009,06,05,04,23,12.70
2009,06,05,04,24,12.70
2009,06,05,04,25,12.70
2009,06,05,04,26,12.60
2009,06,05,04,27,12.60
2009,06,05,04,28,12.60
2009,06,05,04,29,12.60
2009,06,05,04,30,12.60
2009,06,05,04,31,12.60
2009,06,05,04,32,12.50
2009,06,05,04,33,12.50
2009,06,05,04,34,12.50
2009,06,05,04,35,12.50
2009,06,05,04,36,12.40
2009,06,05,04,37,12.40
2009,06,05,04,38,12.40
2009,06,05,04,39,12.30
2009,06,05,04,40,12.30
2009,06,05,04,41,12.30
2009,06,05,04,42,12.30
2009,06,05,04,43,12.30
2009,06,05,04,44,12.30
2009,06,05,04,45,12.30
2009,06,05,04,46,12.30
2009,06,05,04,47,12.30
2009,06,05,04,48,12.30
2009,06,05,04,49,12.30
2009,06,05,04,50,12.30
2009,06,05,04,51,12.30
2009,06,05,04,52,12.30
2009,06,05,04,53,12.30
2009,06,05,04,54,12.30
2009,06,05,04,55,12.30
2009,06,05,04,56,12.30
2009,06,05,04,57,12.40
2009,06,05,04,58,12.40
2009,06,05,04,59,12.40
2009,06,05,05,00,12.50
2009,06,05,05,01,12.60
2009,06,05,05,02,12.70
2009,06,05,05,03,12.70
2009,06,05,05,04,12.80
2009,06,05,05,05,12.80
2009,06,05,05,06,12.90
2009,06,05,05,07,12.90
2009,06,05,05,08,12.90
2009,06,05,05,09,13.00
2009,06,05,05,10,13.00
2009,06,05,05,11,13.10
2009,06,05,05,12,13.10
2009,06,05,05,13,13.20
2009,06,05,05,14,13.20
2009,06,05,05,15,13.30
2009,06,05,05,16,13.30
2009,06,05,05,17,13.40
2009,06,05,05,18,13.50
2009,06,05,05,19,13.60
2009,06,05,05,20,13.60
2009,06,05,05,21,13.70
2009,06,05,05,22,13.80
2009,06,05,05,23,13.80
2009,06,05,05,24,13.90
2009,06,05,05,25,14.00
2009,06,05,05,26,14.10
2009,06,05,05,27,14.20
2009,06,05,05,28,14.30
2009,06,05,05,29,14.30
2009,06,05,05,30,14.40
2009,06,05,05,31,14.40
2009,06,05,05,32,14.50
2009,06,05,05,33,14.50
2009,06,05,05,34,14.50
2009,06,05,05,35,14.60
2009,06,05,05,36,14.60
2009,06,05,05,37,14.60
2009,06,05,05,38,14.70
2009,06,05,05,39,14.70
2009,06,05,05,40,14.70
2009,06,05,05,41,14.70
2009,06,05,05,42,14.70
2009,06,05,05,43,14.70
2009,06,05,05,44,14.70
2009,06,05,05,45,14.70
2009,06,05,05,46,14.70
2009,06,05,05,47,14.70
2009,06,05,05,48,14.60
2009,06,05,05,49,14.60
2009,06,05,05,50,14.60
2009,06,05,05,51,14.50
2009,06,05,05,52,14.40
2009,06,05,05,53,14.40
2009,06,05,05,54,14.30
2009,06,05,05,55,14.30
2009,06,05,05,56,14.30
2009,06,05,05,57,14.30
2009,06,05,05,58,14.20
2009,06,05,05,59,14.20
2009,06,05,06,00,14.20
2009,06,05,06,01,14.30
2009,06,05,06,02,14.30
2009,06,05,06,03,14.30
2009,06,05,06,04,14.30
2009,06,05,06,05,14.30
2009,06,05,06,06,14.30
2009,06,05,06,07,14.40
2009,06,05,06,08,14.40
2009,06,05,06,09,14.40
2009,06,05,06,10,14.40
2009,06,05,06,11,14.50
2009,06,05,06,12,14.50
2009,06,05,06,13,14.50
2009,06,05,06,14,14.50
2009,06,05,06,15,14.60
2009,06,05,06,16,14.60
2009,06,05,06,17,14.70
2009,06,05,06,18,14.70
2009,06,05,06,19,14.80
2009,06,05,06,20,14.80
2009,06,05,06,21,14.80
2009,06,05,06,22,14.80
2009,06,05,06,23,14.80
2009,06,05,06,24,14.80
2009,06,05,06,25,14.80
2009,06,05,06,26,14.90
2009,06,05,06,27,14.90
2009,06,05,06,28,14.90
2009,06,05,06,29,14.90
2009,06,05,06,30,15.00
2009,06,05,06,31,15.00
2009,06,05,06,32,15.00
2009,06,05,06,33,15.00
2009,06,05,06,34,15.00
2009,06,05,06,35,15.00
2009,06,05,06,36,15.00
2009,06,05,06,37,15.00
2009,06,05,06,38,15.00
2009,06,05,06,39,15.10
2009,06,05,06,40,15.10
2009,06,05,06,41,15.20
2009,06,05,06,42,15.20
2009,06,05,06,43,15.30
2009,06,05,06,44,15.30
2009,06,05,06,45,15.30
2009,06,05,06,46,15.30
2009,06,05,06,47,15.30
2009,06,05,06,48,15.30
2009,06,05,06,49,15.30
2009,06,05,06,50,15.30
2009,06,05,06,51,15.30
2009,06,05,06,52,15.30
2009,06,05,06,53,15.30
2009,06,05,06,54,15.30
2009,06,05,06,55,15.30
2009,06,05,06,56,15.30
2009,06,05,06,57,15.30
2009,06,05,06,58,15.30
2009,06,05,06,59,15.30
2009,06,05,07,00,15.30
2009,06,05,07,01,15.30
2009,06,05,07,02,15.30
2009,06,05,07,03,15.30
2009,06,05,07,04,15.20
2009,06,05,07,05,15.20
2009,06,05,07,06,15.10
2009,06,05,07,07,15.00
2009,06,05,07,08,15.00
2009,06,05,07,09,15.00
2009,06,05,07,10,15.00
2009,06,05,07,11,15.00
2009,06,05,07,12,14.90
2009,06,05,07,13,14.80
2009,06,05,07,14,14.70
2009,06,05,07,15,14.60
2009,06,05,07,16,14.50
2009,06,05,07,17,14.50
2009,06,05,07,18,14.50
2009,06,05,07,19,14.50
2009,06,05,07,20,14.60
2009,06,05,07,21,14.60
2009,06,05,07,22,14.70
2009,06,05,07,23,14.70
2009,06,05,07,24,14.70
2009,06,05,07,25,14.80
2009,06,05,07,26,14.80
2009,06,05,07,27,14.90
2009,06,05,07,28,15.00
2009,06,05,07,29,15.00
2009,06,05,07,30,15.00
2009,06,05,07,31,15.00
2009,06,05,07,32,15.20
2009,06,05,07,33,15.40
2009,06,05,07,34,15.50
2009,06,05,07,35,15.60
2009,06,05,07,36,15.70
2009,06,05,07,37,15.70
2009,06,05,07,38,15.80
2009,06,05,07,39,15.80
2009,06,05,07,40,15.90
2009,06,05,07,41,16.10
2009,06,05,07,42,16.10
2009,06,05,07,43,16.10
2009,06,05,07,44,16.20
2009,06,05,07,45,16.30
2009,06,05,07,46,16.30
2009,06,05,07,47,16.40
2009,06,05,07,48,16.40
2009,06,05,07,49,16.40
2009,06,05,07,50,16.40
2009,06,05,07,51,16.40
2009,06,05,07,52,16.30
2009,06,05,07,53,16.30
2009,06,05,07,54,16.20
2009,06,05,07,55,16.20
2009,06,05,07,56,16.20
2009,06,05,07,57,16.20
2009,06,05,07,58,16.20
2009,06,05,07,59,16.20
2009,06,05,08,00,16.30
2009,06,05,08,01,16.30
2009,06,05,08,02,16.40
2009,06,05,08,03,16.40
2009,06,05,08,04,16.40
2009,06,05,08,05,16.40
2009,06,05,08,06,16.40
2009,06,05,08,07,16.30
2009,06,05,08,08,16.30
2009,06,05,08,09,16.30
2009,06,05,08,10,16.30
2009,06,05,08,11,16.30
2009,06,05,08,12,16.40
2009,06,05,08,13,16.50
2009,06,05,08,14,16.50
2009,06,05,08,15,16.60
2009,06,05,08,16,16.70
2009,06,05,08,17,16.80
2009,06,05,08,18,16.80
2009,06,05,08,19,16.90
2009,06,05,08,20,17.00
2009,06,05,08,21,17.20
2009,06,05,08,22,17.30
2009,06,05,08,23,17.50
2009,06,05,08,24,17.70
2009,06,05,08,25,17.80
2009,06,05,08,26,18.00
2009,06,05,08,27,18.10
2009,06,05,08,28,18.30
2009,06,05,08,29,18.30
2009,06,05,08,30,18.30
2009,06,05,08,31,18.30
2009,06,05,08,32,18.30
2009,06,05,08,33,18.30
2009,06,05,08,34,18.30
2009,06,05,08,35,18.30
2009,06,05,08,36,18.30
2009,06,05,08,37,18.20
2009,06,05,08,38,18.10
2009,06,05,08,39,18.10
2009,06,05,08,40,18.10
2009,06,05,08,41,18.10
2009,06,05,08,42,18.20
2009,06,05,08,43,18.20
2009,06,05,08,44,18.10
2009,06,05,08,45,17.90
2009,06,05,08,46,17.90
2009,06,05,08,47,17.80
2009,06,05,08,48,17.80
2009,06,05,08,49,17.80
2009,06,05,08,50,17.80
2009,06,05,08,51,17.90
2009,06,05,08,52,18.00
2009,06,05,08,53,18.10
2009,06,05,08,54,18.30
2009,06,05,08,55,18.40
2009,06,05,08,56,18.60
2009,06,05,08,57,18.70
2009,06,05,08,58,18.70
2009,06,05,08,59,18.70
2009,06,05,09,00,18.80
2009,06,05,09,01,18.90
2009,06,05,09,02,19.00
2009,06,05,09,03,19.10
2009,06,05,09,04,19.20
2009,06,05,09,05,19.30
2009,06,05,09,06,19.30
2009,06,05,09,07,19.30
2009,06,05,09,08,19.30
2009,06,05,09,09,19.40
2009,06,05,09,10,19.50
2009,06,05,09,11,19.60
2009,06,05,09,12,19.60
2009,06,05,09,13,19.50
2009,06,05,09,14,19.50
2009,06,05,09,15,19.50
2009,06,05,09,16,19.50
2009,06,05,09,17,19.40
2009,06,05,09,18,19.40
2009,06,05,09,19,19.30
2009,06,05,09,20,19.30
2009,06,05,09,21,19.20
2009,06,05,09,22,19.20
2009,06,05,09,23,19.20
2009,06,05,09,24,19.30
2009,06,05,09,25,19.30
2009,06,05,09,26,19.30
2009,06,05,09,27,19.40
2009,06,05,09,28,19.50
2009,06,05,09,29,19.60
2009,06,05,09,30,19.70
2009,06,05,09,31,19.80
2009,06,05,09,32,19.60
2009,06,05,09,33,19.40
2009,06,05,09,34,19.20
2009,06,05,09,35,18.90
2009,06,05,09,36,18.80
2009,06,05,09,37,18.60
2009,06,05,09,38,18.50
2009,06,05,09,39,18.40
2009,06,05,09,40,18.40
2009,06,05,09,41,18.50
2009,06,05,09,42,18.50
2009,06,05,09,43,18.60
2009,06,05,09,44,18.70
2009,06,05,09,45,18.70
2009,06,05,09,46,18.70
2009,06,05,09,47,18.70
2009,06,05,09,48,18.80
2009,06,05,09,49,18.80
2009,06,05,09,50,18.80
2009,06,05,09,51,18.80
2009,06,05,09,52,18.80
2009,06,05,09,53,18.80
2009,06,05,09,54,18.80
2009,06,05,09,55,18.90
2009,06,05,09,56,19.00
2009,06,05,09,57,19.10
2009,06,05,09,58,19.20
2009,06,05,09,59,19.20
2009,06,05,10,00,19.30
2009,06,05,10,01,19.50
2009,06,05,10,02,19.60
2009,06,05,10,03,19.60
2009,06,05,10,04,19.60
2009,06,05,10,05,19.70
2009,06,05,10,06,19.70
2009,06,05,10,07,19.70
2009,06,05,10,08,19.70
2009,06,05,10,09,19.80
2009,06,05,10,10,20.00
2009,06,05,10,11,19.90
2009,06,05,10,12,19.80
2009,06,05,10,13,19.70
2009,06,05,10,14,19.50
2009,06,05,10,15,19.50
2009,06,05,10,16,19.40
2009,06,05,10,17,19.40
2009,06,05,10,18,19.30
2009,06,05,10,19,19.20
2009,06,05,10,20,19.20
2009,06,05,10,21,19.30
2009,06,05,10,22,19.30
2009,06,05,10,23,19.40
2009,06,05,10,24,19.30
2009,06,05,10,25,19.30
2009,06,05,10,26,19.20
2009,06,05,10,27,19.20
2009,06,05,10,28,19.00
2009,06,05,10,29,18.90
2009,06,05,10,30,18.80
2009,06,05,10,31,18.70
2009,06,05,10,32,18.60
2009,06,05,10,33,18.60
2009,06,05,10,34,18.60
2009,06,05,10,35,18.70
2009,06,05,10,36,18.70
2009,06,05,10,37,18.80
2009,06,05,10,38,18.80
2009,06,05,10,39,18.90
2009,06,05,10,40,19.00
2009,06,05,10,41,19.10
2009,06,05,10,42,19.20
2009,06,05,10,43,19.30
2009,06,05,10,44,19.30
2009,06,05,10,45,19.20
2009,06,05,10,46,19.10
2009,06,05,10,47,19.00
2009,06,05,10,48,18.90
2009,06,05,10,49,18.90
2009,06,05,10,50,19.00
2009,06,05,10,51,19.00
2009,06,05,10,52,19.00
2009,06,05,10,53,19.10
2009,06,05,10,54,19.10
2009,06,05,10,55,19.20
2009,06,05,10,56,19.20
2009,06,05,10,57,19.20
2009,06,05,10,58,19.20
2009,06,05,10,59,19.30
2009,06,05,11,00,19.20
2009,06,05,11,01,19.20
2009,06,05,11,02,19.30
2009,06,05,11,03,19.30
2009,06,05,11,04,19.30
2009,06,05,11,05,19.20
2009,06,05,11,06,19.20
2009,06,05,11,07,19.10
2009,06,05,11,08,19.00
2009,06,05,11,09,18.90
2009,06,05,11,10,18.80
2009,06,05,11,11,18.70
2009,06,05,11,12,18.50
2009,06,05,11,13,18.30
2009,06,05,11,14,18.20
2009,06,05,11,15,18.10
2009,06,05,11,16,18.00
2009,06,05,11,17,17.90
2009,06,05,11,18,17.90
2009,06,05,11,19,17.90
2009,06,05,11,20,18.10
2009,06,05,11,21,18.10
2009,06,05,11,22,18.20
2009,06,05,11,23,18.30
2009,06,05,11,24,18.20
2009,06,05,11,25,18.10
2009,06,05,11,26,18.00
2009,06,05,11,27,17.90
2009,06,05,11,28,18.00
2009,06,05,11,29,18.00
2009,06,05,11,30,17.90
2009,06,05,11,31,17.90
2009,06,05,11,32,18.00
2009,06,05,11,33,17.90
2009,06,05,11,34,17.80
2009,06,05,11,35,17.90
2009,06,05,11,36,17.90
2009,06,05,11,37,17.80
2009,06,05,11,38,17.90
2009,06,05,11,39,17.90
2009,06,05,11,40,17.90
2009,06,05,11,41,17.80
2009,06,05,11,42,17.80
2009,06,05,11,43,17.90
2009,06,05,11,44,18.00
2009,06,05,11,45,18.10
2009,06,05,11,46,18.30
2009,06,05,11,47,18.40
2009,06,05,11,48,18.40
2009,06,05,11,49,18.50
2009,06,05,11,50,18.70
2009,06,05,11,51,18.80
2009,06,05,11,52,19.00
2009,06,05,11,53,19.10
2009,06,05,11,54,19.20
2009,06,05,11,55,19.40
2009,06,05,11,56,19.60
2009,06,05,11,57,19.70
2009,06,05,11,58,19.80
2009,06,05,11,59,20.00
2009,06,05,12,00,20.10
2009,06,05,12,01,20.00
2009,06,05,12,02,20.00
2009,06,05,12,03,20.00
2009,06,05,12,04,19.90
2009,06,05,12,05,19.80
2009,06,05,12,06,19.60
2009,06,05,12,07,19.50
2009,06,05,12,08,19.50
2009,06,05,12,09,19.40
2009,06,05,12,10,19.50
2009,06,05,12,11,19.60
2009,06,05,12,12,19.70
2009,06,05,12,13,19.70
2009,06,05,12,14,19.80
2009,06,05,12,15,19.80
2009,06,05,12,16,19.80
2009,06,05,12,17,19.80
2009,06,05,12,18,19.90
2009,06,05,12,19,19.90
2009,06,05,12,20,20.00
2009,06,05,12,21,20.10
2009,06,05,12,22,20.20
2009,06,05,12,23,20.20
2009,06,05,12,24,20.20
2009,06,05,12,25,20.10
2009,06,05,12,26,19.90
2009,06,05,12,27,19.70
2009,06,05,12,28,19.60
2009,06,05,12,29,19.40
2009,06,05,12,30,19.30
2009,06,05,12,31,19.20
2009,06,05,12,32,19.10
2009,06,05,12,33,19.20
2009,06,05,12,34,19.20
2009,06,05,12,35,19.20
2009,06,05,12,36,19.20
2009,06,05,12,37,19.20
2009,06,05,12,38,19.30
2009,06,05,12,39,19.40
2009,06,05,12,40,19.40
2009,06,05,12,41,19.40
2009,06,05,12,42,19.40
2009,06,05,12,43,19.40
2009,06,05,12,44,19.50
2009,06,05,12,45,19.50
2009,06,05,12,46,19.40
2009,06,05,12,47,19.30
2009,06,05,12,48,19.10
2009,06,05,12,49,18.90
2009,06,05,12,50,18.80
2009,06,05,12,51,18.70
2009,06,05,12,52,18.60
2009,06,05,12,53,18.60
2009,06,05,12,54,18.60
2009,06,05,12,55,18.80
2009,06,05,12,56,18.90
2009,06,05,12,57,18.80
2009,06,05,12,58,18.70
2009,06,05,12,59,18.80
2009,06,05,13,00,19.00
2009,06,05,13,01,19.10
2009,06,05,13,02,19.00
2009,06,05,13,03,18.90
2009,06,05,13,04,18.90
2009,06,05,13,05,18.80
2009,06,05,13,06,18.70
2009,06,05,13,07,18.50
2009,06,05,13,08,18.40
2009,06,05,13,09,18.40
2009,06,05,13,10,18.50
2009,06,05,13,11,18.60
2009,06,05,13,12,18.70
2009,06,05,13,13,18.70
2009,06,05,13,14,18.80
2009,06,05,13,15,19.00
2009,06,05,13,16,19.00
2009,06,05,13,17,19.00
2009,06,05,13,18,19.00
2009,06,05,13,19,18.90
2009,06,05,13,20,19.00
2009,06,05,13,21,19.00
2009,06,05,13,22,19.00
2009,06,05,13,23,19.00
2009,06,05,13,24,19.00
2009,06,05,13,25,18.80
2009,06,05,13,26,18.80
2009,06,05,13,27,18.80
2009,06,05,13,28,18.70
2009,06,05,13,29,18.80
2009,06,05,13,30,18.90
2009,06,05,13,31,18.90
2009,06,05,13,32,18.90
2009,06,05,13,33,18.90
2009,06,05,13,34,18.80
2009,06,05,13,35,18.90
2009,06,05,13,36,19.00
2009,06,05,13,37,19.20
2009,06,05,13,38,19.30
2009,06,05,13,39,19.30
2009,06,05,13,40,19.30
2009,06,05,13,41,19.30
2009,06,05,13,42,19.20
2009,06,05,13,43,19.10
2009,06,05,13,44,19.00
2009,06,05,13,45,18.80
2009,06,05,13,46,18.60
2009,06,05,13,47,18.40
2009,06,05,13,48,18.50
2009,06,05,13,49,18.50
2009,06,05,13,50,18.40
2009,06,05,13,51,18.30
2009,06,05,13,52,18.20
2009,06,05,13,53,18.30
2009,06,05,13,54,18.30
2009,06,05,13,55,18.40
2009,06,05,13,56,18.50
2009,06,05,13,57,18.50
2009,06,05,13,58,18.50
2009,06,05,13,59,18.40
2009,06,05,14,00,18.30
2009,06,05,14,01,18.10
2009,06,05,14,02,17.80
2009,06,05,14,03,17.70
2009,06,05,14,04,17.60
2009,06,05,14,05,17.50
2009,06,05,14,06,17.30
2009,06,05,14,07,17.30
2009,06,05,14,08,17.30
2009,06,05,14,09,17.40
2009,06,05,14,10,17.50
2009,06,05,14,11,17.60
2009,06,05,14,12,17.70
2009,06,05,14,13,17.80
2009,06,05,14,14,17.90
2009,06,05,14,15,17.80
2009,06,05,14,16,17.60
2009,06,05,14,17,17.60
2009,06,05,14,18,17.60
2009,06,05,14,19,17.60
2009,06,05,14,20,17.80
2009,06,05,14,21,18.00
2009,06,05,14,22,18.20
2009,06,05,14,23,18.30
2009,06,05,14,24,18.40
2009,06,05,14,25,18.60
2009,06,05,14,26,18.70
2009,06,05,14,27,18.80
2009,06,05,14,28,18.90
2009,06,05,14,29,19.00
2009,06,05,14,30,19.10
2009,06,05,14,31,19.00
2009,06,05,14,32,18.90
2009,06,05,14,33,18.70
2009,06,05,14,34,18.60
2009,06,05,14,35,18.60
2009,06,05,14,36,18.60
2009,06,05,14,37,18.60
2009,06,05,14,38,18.60
2009,06,05,14,39,18.50
2009,06,05,14,40,18.50
2009,06,05,14,41,18.50
2009,06,05,14,42,18.50
2009,06,05,14,43,18.40
2009,06,05,14,44,18.30
2009,06,05,14,45,18.30
2009,06,05,14,46,18.30
2009,06,05,14,47,18.20
2009,06,05,14,48,18.30
2009,06,05,14,49,18.40
2009,06,05,14,50,18.50
2009,06,05,14,51,18.80
2009,06,05,14,52,19.00
2009,06,05,14,53,19.20
2009,06,05,14,54,19.40
2009,06,05,14,55,19.30
2009,06,05,14,56,19.10
2009,06,05,14,57,18.70
2009,06,05,14,58,18.30
2009,06,05,14,59,18.00
2009,06,05,15,00,17.70
2009,06,05,15,01,17.50
2009,06,05,15,02,17.50
2009,06,05,15,03,17.40
2009,06,05,15,04,17.40
2009,06,05,15,05,17.40
2009,06,05,15,06,17.30
2009,06,05,15,07,17.30
2009,06,05,15,08,17.30
2009,06,05,15,09,17.30
2009,06,05,15,10,17.50
2009,06,05,15,11,17.70
2009,06,05,15,12,18.00
2009,06,05,15,13,18.10
2009,06,05,15,14,18.10
2009,06,05,15,15,18.10
2009,06,05,15,16,18.30
2009,06,05,15,17,18.60
2009,06,05,15,18,18.80
2009,06,05,15,19,18.80
2009,06,05,15,20,18.50
2009,06,05,15,21,18.50
2009,06,05,15,22,18.50
2009,06,05,15,23,18.70
2009,06,05,15,24,18.90
2009,06,05,15,25,19.00
2009,06,05,15,26,19.10
2009,06,05,15,27,19.30
2009,06,05,15,28,19.40
2009,06,05,15,29,19.50
2009,06,05,15,30,19.70
2009,06,05,15,31,19.80
2009,06,05,15,32,19.90
2009,06,05,15,33,20.00
2009,06,05,15,34,20.10
2009,06,05,15,35,20.30
2009,06,05,15,36,20.30
2009,06,05,15,37,20.40
2009,06,05,15,38,20.50
2009,06,05,15,39,20.70
2009,06,05,15,40,20.80
2009,06,05,15,41,20.90
2009,06,05,15,42,21.00
2009,06,05,15,43,21.10
2009,06,05,15,44,21.20
2009,06,05,15,45,21.20
2009,06,05,15,46,21.30
2009,06,05,15,47,21.40
2009,06,05,15,48,21.40
2009,06,05,15,49,21.50
2009,06,05,15,50,21.60
2009,06,05,15,51,21.70
2009,06,05,15,52,21.70
2009,06,05,15,53,21.70
2009,06,05,15,54,21.70
2009,06,05,15,55,21.80
2009,06,05,15,56,21.80
2009,06,05,15,57,21.90
2009,06,05,15,58,21.90
2009,06,05,15,59,21.80
2009,06,05,16,00,21.80
2009,06,05,16,01,21.80
2009,06,05,16,02,21.80
2009,06,05,16,03,21.80
2009,06,05,16,04,21.90
2009,06,05,16,05,21.90
2009,06,05,16,06,22.00
2009,06,05,16,07,22.20
2009,06,05,16,08,22.10
2009,06,05,16,09,22.10
2009,06,05,16,10,22.20
2009,06,05,16,11,22.30
2009,06,05,16,12,22.30
2009,06,05,16,13,22.40
2009,06,05,16,14,22.40
2009,06,05,16,15,22.30
2009,06,05,16,16,22.30
2009,06,05,16,17,22.40
2009,06,05,16,18,22.40
2009,06,05,16,19,22.50
2009,06,05,16,20,22.60
2009,06,05,16,21,22.70
2009,06,05,16,22,22.70
2009,06,05,16,23,22.70
2009,06,05,16,24,22.70
2009,06,05,16,25,22.70
2009,06,05,16,26,22.80
2009,06,05,16,27,22.80
2009,06,05,16,28,22.80
2009,06,05,16,29,22.80
2009,06,05,16,30,22.80
2009,06,05,16,31,22.90
2009,06,05,16,32,22.90
2009,06,05,16,33,23.00
2009,06,05,16,34,23.00
2009,06,05,16,35,23.00
2009,06,05,16,36,22.90
2009,06,05,16,37,22.90
2009,06,05,16,38,22.80
2009,06,05,16,39,22.80
2009,06,05,16,40,22.70
2009,06,05,16,41,22.60
2009,06,05,16,42,22.60
2009,06,05,16,43,22.60
2009,06,05,16,44,22.60
2009,06,05,16,45,22.50
2009,06,05,16,46,22.60
2009,06,05,16,47,22.60
2009,06,05,16,48,22.50
2009,06,05,16,49,22.40
2009,06,05,16,50,22.40
2009,06,05,16,51,22.30
2009,06,05,16,52,22.30
2009,06,05,16,53,22.30
2009,06,05,16,54,22.30
2009,06,05,16,55,22.30
2009,06,05,16,56,22.30
2009,06,05,16,57,22.30
2009,06,05,16,58,22.20
2009,06,05,16,59,22.20
2009,06,05,17,00,22.10
2009,06,05,17,01,22.10
2009,06,05,17,02,22.00
2009,06,05,17,03,22.00
2009,06,05,17,04,21.90
2009,06,05,17,05,21.80
2009,06,05,17,06,21.70
2009,06,05,17,07,21.70
2009,06,05,17,08,21.60
2009,06,05,17,09,21.70
2009,06,05,17,10,21.80
2009,06,05,17,11,21.80
2009,06,05,17,12,21.80
2009,06,05,17,13,21.80
2009,06,05,17,14,21.70
2009,06,05,17,15,21.70
2009,06,05,17,16,21.70
2009,06,05,17,17,21.70
2009,06,05,17,18,21.70
2009,06,05,17,19,21.70